Flag for Germany Weather past 2 weeks in Rastatt, Baden-Württemberg, Germany

Now
36 °F

Passing clouds.


Feels Like: 26 °F
Forecast: 36 / 41 °F
Wind: 15 mph from Southwest

Location: Karlsruhe - Baden Wurttemberg

Current Time: Jan 29, 2015 at 8:12:59 AM

Latest Report: Jan 29, 2015 at 7:50 AM


Visibility: N/A

Pressure: 29.53 "Hg

Humidity: 81%

Dew point: 30 °F

Location of RastattLocation

Historic Weather in Rastatt — Graph

°F

Rastatt temperature yesterday

Maximum temperature yesterday: 41 °F (at 12:50 PM)
Minimum temperature yesterday: 36 °F (at 4:50 AM)
Average temperature yesterday: 39 °F

Past Weeks' High & Low Weather Summary

 TemperatureHumidityPressure
High54 °F (Jan 15, 4:50 PM)100% (Jan 16, 4:50 PM)30.45 "Hg (Jan 16, 4:50 PM)
Low27 °F (Jan 18, 5:20 AM)47% (Jan 15, 1:20 PM)29.56 "Hg (Jan 28, 9:50 PM)
Average37 °F86%30.01 "Hg
* Reported Jan 14 6:03 AM — Jan 29 6:50 AM, Rastatt, Weather by CustomWeather, © 2014

Note: Actual official high and low records may vary slightly from our data, if they occured in-between our weather recording intervals... More about our weather records

Advertising

Rastatt weather history for previous 24 hours

 ConditionsComfort  
Time TempWeatherWind HumidityBarometerVisibility
6:50 AM
Jan 29
36 °FPassing clouds.13 mph75%29.56 "HgN/A
6:20 AM34 °FPassing clouds.9 mph81%29.56 "HgN/A
5:50 AM36 °FPassing clouds.9 mph81%29.56 "HgN/A
5:20 AM36 °FPassing clouds.8 mph75%29.59 "HgN/A
11:02 PM
Jan 28
39 °FLight rain. Partly cloudy.16 mph87%29.62 "Hg4 mi
10:20 PM41 °FLight rain. Passing clouds.25 mph76%29.56 "HgN/A
9:50 PM41 °FLight rain. Passing clouds.30 mph76%29.56 "HgN/A
9:20 PM41 °FLight rain. Passing clouds.31 mph76%29.59 "HgN/A
8:50 PM41 °FSprinkles. Passing clouds.31 mph76%29.59 "Hg6 mi
8:20 PM41 °FRain showers. Passing clouds.28 mph76%29.62 "Hg4 mi
7:50 PM41 °FSprinkles. Passing clouds.30 mph70%29.62 "Hg5 mi
7:20 PM41 °FPassing clouds.28 mph70%29.65 "HgN/A
6:50 PM41 °FSprinkles. Passing clouds.26 mph76%29.68 "Hg4 mi
6:20 PM41 °FPassing clouds.29 mph70%29.71 "HgN/A
5:50 PM41 °FPassing clouds.23 mph70%29.74 "HgN/A
5:20 PM41 °FPassing clouds.23 mph70%29.74 "HgN/A
4:50 PM41 °FScattered clouds.23 mph70%29.77 "HgN/A
4:20 PM41 °FPartly sunny.22 mph76%29.83 "HgN/A
3:50 PM41 °FPartly sunny.21 mph76%29.86 "HgN/A
3:20 PM41 °FPartly sunny.23 mph76%29.86 "HgN/A
2:50 PM41 °FPartly sunny.21 mph76%29.89 "HgN/A
2:20 PM41 °FPartly sunny.23 mph76%29.92 "HgN/A
1:50 PM41 °FPartly sunny.22 mph76%29.92 "HgN/A
1:20 PM41 °FPartly sunny.21 mph76%29.98 "HgN/A
12:50 PM41 °FPartly sunny.20 mph76%29.98 "HgN/A
12:20 PM39 °FBroken clouds.20 mph81%30.01 "HgN/A
11:50 AM39 °FBroken clouds.21 mph81%30.04 "HgN/A
11:20 AM39 °FBroken clouds.17 mph81%30.07 "HgN/A
10:50 AM37 °FPartly sunny.18 mph87%30.07 "HgN/A
10:20 AM37 °FPartly sunny.20 mph87%30.07 "HgN/A
9:50 AM37 °FBroken clouds.18 mph81%30.09 "HgN/A
9:20 AM36 °FBroken clouds.16 mph87%30.09 "HgN/A
8:50 AM36 °FBroken clouds.15 mph87%30.09 "HgN/A
8:20 AM36 °FBroken clouds.12 mph87%30.12 "HgN/A
Weather by CustomWeather, © 2014

See weather overviewHow to use our weather pages